Location: Cazavet
(43.0017°N, 1.0431°E)
Time: 22:01:55
(UTC+00:00)

FengYun 1-2 T - Pass Details

Date: 18 January 2026
Orbit: 844 x 880 km, 98.8° (Epoch: 10 February)

Event Time Altitude Azimuth Distance (km) Brightness Sun altitude
Rises 04:57:47 0° 11° (N) 3,452 7.5 -26.1°
Reaches altitude 10° 05:00:12 10° 9° (N) 2,505 6.7 -25.7°
Maximum altitude 05:05:42 67° 288° (WNW) 928 4.1 -24.7°
Enters shadow 05:06:41 55° 238° (WSW) 1,014 4.3 -24.5°
